This is the latest recevied weather packets stored in our database for station/object K4GSL. If no packets are shown the sender has not sent any weather packets the latest 10 day(s).
| Time | Temp. | Humidity | Pressure | Rain* | Wind** | Luminosity | Snow |
|---|---|---|---|---|---|---|---|
| 1777794152 | 10.56° C | 99% | 1016.3 hPa | 0 mm | - | 0 W/m² | - |
| 1777793848 | 11.11° C | 99% | 1016.5 hPa | 0 mm | - | 0 W/m² | - |
| 1777793546 | 11.11° C | 99% | 1016.4 hPa | 0 mm | - | 0 W/m² | - |
| 1777793244 | 11.11° C | 99% | 1016.4 hPa | 0 mm | - | 0 W/m² | - |
| 1777792941 | 11.11° C | 99% | 1016.6 hPa | 0 mm | - | 0 W/m² | - |
| 1777792637 | 11.11° C | 99% | 1016.6 hPa | 0 mm | - | 0 W/m² | - |
| 1777792335 | 11.11° C | 99% | 1016.8 hPa | 0 mm | - | 0 W/m² | - |
| 1777792031 | 11.11° C | 99% | 1016.5 hPa | 0 mm | - | 0 W/m² | - |
| 1777791729 | 11.11° C | 99% | 1016.6 hPa | 0 mm | - | 0 W/m² | - |
| 1777791427 | 11.11° C | 99% | 1016.4 hPa | 0 mm | - | 0 W/m² | - |
| 1777791124 | 11.11° C | 99% | 1016.6 hPa | 0 mm | - | 0 W/m² | - |
| 1777790821 | 11.67° C | 98% | 1016.6 hPa | 0 mm | - | 0 W/m² | - |
| 1777790518 | 11.67° C | 98% | 1016.8 hPa | 0 mm | - | 0 W/m² | - |
| 1777790215 | 11.67° C | 98% | 1016.8 hPa | 0 mm | - | 0 W/m² | - |
| 1777789914 | 11.67° C | 98% | 1016.8 hPa | 0 mm | - | 0 W/m² | - |
| 1777789611 | 12.22° C | 98% | 1016.9 hPa | 0 mm | - | 0 W/m² | - |
| 1777789310 | 12.22° C | 97% | 1017 hPa | 0 mm | - | 0 W/m² | - |
| 1777789006 | 12.22° C | 97% | 1016.8 hPa | 0 mm | - | 0 W/m² | - |
| 1777788703 | 12.78° C | 97% | 1016.9 hPa | 0 mm | - | 0 W/m² | - |
| 1777788398 | 13.89° C | 95% | 1016.9 hPa | 0 mm | - | 0 W/m² | - |
| 1777788093 | 13.89° C | 95% | 1017 hPa | 0 mm | - | 0 W/m² | - |
| 1777787789 | 13.89° C | 95% | 1017.2 hPa | 0 mm | - | 0 W/m² | - |
| 1777787485 | 13.89° C | 95% | 1017 hPa | 0 mm | - | 0 W/m² | - |
| 1777787181 | 13.89° C | 94% | 1017.1 hPa | 0 mm | - | 0 W/m² | - |
| 1777786878 | 13.89° C | 95% | 1017.2 hPa | 0 mm | - | 0 W/m² | - |
* Rain latest hour (hover to see other rain measurements)
** Current wind speed in m/s (hover to see current wind gust speed)